• In Kazakhstan
  • List of Countries
  • For 7 days
  • Water Temperature
  • Satellite Maps
  • Weather Map
  • News
  • Weather Widgets
  • user-avatar
    Login

    Hourly Weather Helena

    Today, 22 September, Friday

    Time Temperature Precipitation Wind Pressure Humidity
    00:00 +3°C° 0.7 mm 4 mps 641 mmHg 73%
    01:00 +1°C° 0.7 mm 4 mps 641 mmHg 78%
    02:00 0°C° 0.7 mm 5 mps 641 mmHg 82%
    03:00 0°C° 0.6 mm 4 mps 641 mmHg 84%
    04:00 -1°C° 0.6 mm 4 mps 641 mmHg 86%
    05:00 -1°C° 0 mm 5 mps 641 mmHg 89%
    06:00 -1°C° 0.6 mm 4 mps 641 mmHg 88%
    07:00 -1°C° 0.6 mm 4 mps 641 mmHg 88%
    08:00 -1°C° 0.6 mm 4 mps 641 mmHg 88%
    09:00 -1°C° 0.6 mm 4 mps 641 mmHg 87%
    10:00 -1°C° 0.6 mm 4 mps 641 mmHg 86%
    11:00 0°C° 0.6 mm 4 mps 641 mmHg 86%
    12:00 +1°C° 0.5 mm 3 mps 641 mmHg 85%
    13:00 +1°C° 0.5 mm 3 mps 642 mmHg 85%
    14:00 +2°C° 0.5 mm 3 mps 642 mmHg 85%
    15:00 +3°C° 0.3 mm 2 mps 642 mmHg 85%
    16:00 +3°C° 0.3 mm 2 mps 642 mmHg 86%
    17:00 +3°C° 0.3 mm 2 mps 642 mmHg 86%
    18:00 +2°C° 0 mm 2 mps 642 mmHg 89%
    19:00 +2°C° 0 mm 1 mps 642 mmHg 92%
    20:00 +1°C° 0 mm 1 mps 642 mmHg 94%
    21:00 +1°C° 0.1 mm 1 mps 642 mmHg 94%
    22:00 +1°C° 0.1 mm 1 mps 642 mmHg 93%
    23:00 +1°C° 0.1 mm 1 mps 643 mmHg 93%

    Tomorrow, 23 September, Saturday

    Time Temperature Precipitation Wind Pressure Humidity
    00:00 +1°C° 0 mm 1 mps 643 mmHg 93%
    01:00 +1°C° 0 mm 1 mps 643 mmHg 92%
    02:00 0°C° 0 mm 1 mps 643 mmHg 92%
    03:00 0°C° 0 mm 1 mps 642 mmHg 92%
    04:00 0°C° 0 mm 1 mps 642 mmHg 92%
    05:00 -1°C° 0 mm 1 mps 642 mmHg 92%
    06:00 0°C° 0 mm 1 mps 643 mmHg 89%
    07:00 +2°C° 0 mm 1 mps 643 mmHg 86%
    08:00 +3°C° 0 mm 1 mps 644 mmHg 83%
    09:00 +5°C° 0 mm 1 mps 644 mmHg 80%
    10:00 +6°C° 0 mm 1 mps 644 mmHg 76%
    11:00 +8°C° 0 mm 1 mps 644 mmHg 73%
    12:00 +8°C° 0 mm 1 mps 644 mmHg 70%
    13:00 +9°C° 0 mm 1 mps 643 mmHg 67%
    14:00 +10°C° 0 mm 1 mps 643 mmHg 65%
    15:00 +10°C° 0 mm 1 mps 643 mmHg 65%
    16:00 +9°C° 0 mm 1 mps 643 mmHg 66%
    17:00 +9°C° 0 mm 1 mps 643 mmHg 66%
    18:00 +7°C° 0 mm 1 mps 643 mmHg 72%
    19:00 +5°C° 0 mm 1 mps 643 mmHg 77%
    20:00 +3°C° 0 mm 1 mps 643 mmHg 82%
    21:00 +3°C° 0 mm 1 mps 643 mmHg 83%
    22:00 +2°C° 0 mm 1 mps 643 mmHg 84%
    23:00 +2°C° 0 mm 1 mps 644 mmHg 85%

    Day after tomorrow, 24 September, Sunday

    Time Temperature Precipitation Wind Pressure Humidity
    00:00 +2°C° 0 mm 1 mps 643 mmHg 85%
    01:00 +1°C° 0 mm 1 mps 643 mmHg 86%
    02:00 +1°C° 0 mm 1 mps 643 mmHg 86%
    03:00 +1°C° 0 mm 1 mps 643 mmHg 86%
    04:00 +1°C° 0 mm 1 mps 644 mmHg 87%
    05:00 0°C° 0 mm 1 mps 644 mmHg 87%
    06:00 +2°C° 0 mm 1 mps 644 mmHg 84%
    07:00 +3°C° 0 mm 1 mps 644 mmHg 81%
    08:00 +4°C° 0 mm 1 mps 645 mmHg 77%
    09:00 +6°C° 0 mm 1 mps 645 mmHg 73%
    10:00 +8°C° 0 mm 1 mps 645 mmHg 68%
    11:00 +10°C° 0 mm 1 mps 645 mmHg 63%
    12:00 +11°C° 0 mm 1 mps 645 mmHg 60%
    13:00 +11°C° 0 mm 1 mps 645 mmHg 57%
    14:00 +12°C° 0 mm 1 mps 645 mmHg 54%
    15:00 +12°C° 0 mm 1 mps 645 mmHg 56%
    16:00 +12°C° 0 mm 1 mps 645 mmHg 57%
    17:00 +11°C° 0 mm 1 mps 644 mmHg 58%
    18:00 +9°C° 0 mm 1 mps 644 mmHg 65%
    19:00 +7°C° 0 mm 1 mps 644 mmHg 71%
    20:00 +5°C° 0 mm 1 mps 644 mmHg 77%
    21:00 +5°C° 0 mm 1 mps 644 mmHg 79%
    22:00 +4°C° 0 mm 1 mps 644 mmHg 81%
    23:00 +3°C° 0 mm 2 mps 644 mmHg 82%

    25 September, Monday

    Time Temperature Precipitation Wind Pressure Humidity
    00:00 +2°C° 0 mm 2 mps 644 mmHg 83%
    01:00 +2°C° 0 mm 2 mps 644 mmHg 84%
    02:00 +2°C° 0 mm 2 mps 644 mmHg 84%
    03:00 +2°C° 0 mm 2 mps 644 mmHg 85%
    04:00 +1°C° 0 mm 2 mps 644 mmHg 85%
    05:00 +1°C° 0 mm 2 mps 644 mmHg 86%
    06:00 +2°C° 0 mm 2 mps 645 mmHg 82%
    07:00 +4°C° 0 mm 2 mps 645 mmHg 78%
    08:00 +5°C° 0 mm 2 mps 645 mmHg 74%
    09:00 +7°C° 0 mm 2 mps 645 mmHg 68%
    10:00 +9°C° 0 mm 2 mps 645 mmHg 62%
    11:00 +11°C° 0 mm 3 mps 645 mmHg 56%
    12:00 +12°C° 0 mm 3 mps 645 mmHg 54%
    13:00 +13°C° 0 mm 3 mps 645 mmHg 51%
    14:00 +14°C° 0 mm 3 mps 644 mmHg 48%
    15:00 +14°C° 0 mm 3 mps 644 mmHg 51%
    16:00 +14°C° 0 mm 3 mps 644 mmHg 53%
    17:00 +13°C° 0 mm 3 mps 644 mmHg 56%
    18:00 +12°C° 0 mm 2 mps 643 mmHg 63%
    19:00 +9°C° 0 mm 2 mps 643 mmHg 70%
    20:00 +7°C° 0 mm 2 mps 643 mmHg 77%
    21:00 +7°C° 0 mm 2 mps 643 mmHg 77%
    22:00 +7°C° 0 mm 2 mps 643 mmHg 77%
    23:00 +7°C° 0 mm 2 mps 643 mmHg 77%

    26 September, Tuesday

    Time Temperature Precipitation Wind Pressure Humidity
    00:00 +7°C° 0.1 mm 2 mps 643 mmHg 78%
    01:00 +7°C° 0.1 mm 2 mps 643 mmHg 79%
    02:00 +7°C° 0.1 mm 2 mps 643 mmHg 80%
    03:00 +7°C° 0 mm 2 mps 643 mmHg 81%
    04:00 +7°C° 0 mm 2 mps 643 mmHg 82%
    05:00 +7°C° 0 mm 2 mps 644 mmHg 83%
    06:00 +7°C° 0 mm 2 mps 644 mmHg 82%
    07:00 +8°C° 0 mm 2 mps 645 mmHg 80%
    08:00 +8°C° 0 mm 2 mps 645 mmHg 78%
    09:00 +10°C° 0 mm 2 mps 646 mmHg 72%
    10:00 +12°C° 0 mm 2 mps 646 mmHg 65%
    11:00 +14°C° 0 mm 2 mps 647 mmHg 59%
    12:00 +15°C° 0 mm 2 mps 647 mmHg 56%
    13:00 +15°C° 0 mm 2 mps 647 mmHg 54%
    14:00 +16°C° 0 mm 2 mps 647 mmHg 51%
    15:00 +16°C° 0 mm 2 mps 647 mmHg 53%
    16:00 +16°C° 0 mm 2 mps 647 mmHg 54%
    17:00 +15°C° 0 mm 2 mps 647 mmHg 55%
    18:00 +13°C° 0 mm 1 mps 647 mmHg 63%
    19:00 +11°C° 0 mm 1 mps 647 mmHg 71%
    20:00 +9°C° 0 mm 1 mps 646 mmHg 79%
    21:00 +9°C° 0 mm 1 mps 646 mmHg 80%
    22:00 +8°C° 0 mm 1 mps 646 mmHg 82%
    23:00 +8°C° 0 mm 1 mps 646 mmHg 83%

    27 September, Wednesday

    Time Temperature Precipitation Wind Pressure Humidity
    00:00 +7°C° 0 mm 1 mps 646 mmHg 84%
    01:00 +7°C° 0 mm 1 mps 646 mmHg 84%
    02:00 +7°C° 0 mm 1 mps 647 mmHg 85%
    03:00 +7°C° 0 mm 1 mps 647 mmHg 86%
    04:00 +6°C° 0 mm 1 mps 647 mmHg 86%
    05:00 +6°C° 0 mm 1 mps 647 mmHg 87%
    06:00 +7°C° 0 mm 1 mps 647 mmHg 82%
    07:00 +9°C° 0 mm 1 mps 648 mmHg 77%
    08:00 +10°C° 0 mm 1 mps 649 mmHg 73%
    09:00 +11°C° 0 mm 0 mps 649 mmHg 65%
    10:00 +13°C° 0 mm 0 mps 650 mmHg 58%
    11:00 +16°C° 0 mm 0 mps 650 mmHg 50%
    12:00 +16°C° 0 mm 0 mps 650 mmHg 47%
    13:00 +19°C° 0 mm 1 mps 650 mmHg 44%
    14:00 +19°C° 0 mm 1 mps 650 mmHg 42%
    15:00 +19°C° 0 mm 1 mps 649 mmHg 44%
    16:00 +17°C° 0 mm 2 mps 649 mmHg 46%
    17:00 +16°C° 0 mm 2 mps 649 mmHg 48%
    18:00 +14°C° 0 mm 2 mps 649 mmHg 57%
    19:00 +12°C° 0 mm 1 mps 648 mmHg 66%
    20:00 +10°C° 0 mm 1 mps 648 mmHg 74%
    21:00 +9°C° 0 mm 1 mps 648 mmHg 77%
    22:00 +9°C° 0 mm 1 mps 648 mmHg 79%
    23:00 +9°C° 0 mm 1 mps 648 mmHg 81%
    Show more